Location: Newark
(22.3060°N, 114.2134°E)
Time: 07:49:40
(UTC+00:00)

A-11 Canister half - Visible Passes

Search period start: 31 July 2021 00:00
Search period end: 10 August 2021 00:00
Orbit: 1527 x 1682 km, 47.3° (Epoch: 30 July)

Date Brightness Start Highest point End Pass type
(mag) Time Alt. Az. Time Alt. Az. Time Alt. Az.
31 Jul 10.4 13:07:29 10° WNW 13:14:40 25° SW 13:20:14 14° SSW visible
01 Aug 10.4 12:45:33 10° WNW 12:53:04 27° SW 13:00:13 11° S visible
02 Aug 10.4 12:23:39 10° WNW 12:31:27 29° SW 12:39:07 10° S visible
03 Aug 10.3 12:01:46 10° WNW 12:09:50 31° SW 12:17:44 10° S visible
04 Aug 10.3 11:39:54 10° WNW 11:48:13 34° SW 11:56:20 10° S visible
05 Aug 10.3 11:18:04 10° WNW 11:26:35 36° SW 11:34:55 10° S visible
